| time (UTC) | temp F | wind direction | speed MPH | gust MPH | rain 1hr in | rain 24hr in | rain mn in | humidity % | barometer mb |
| 20260506131932 | 61 | 131 | 6.0 | 7.0 | 0.00 | 0.00 | 0.00 | 86 | 1009.8 |
| 20260506131428 | 61 | 219 | 5.0 | 6.0 | 0.00 | 0.00 | 0.00 | 86 | 1009.6 |
| 20260506130925 | 61 | 306 | 3.0 | 6.0 | 0.00 | 0.00 | 0.00 | 87 | 1009.7 |
| 20260506130421 | 60 | 165 | 4.0 | 6.0 | 0.00 | 0.00 | 0.00 | 87 | 1009.8 |
| 20260506125920 | 60 | 137 | 2.0 | 3.0 | 0.00 | 0.00 | 0.00 | 88 | 1009.7 |
| 20260506125418 | 60 | 194 | 7.0 | 8.0 | 0.00 | 0.00 | 0.00 | 88 | 1009.8 |
| 20260506124916 | 60 | 101 | 5.0 | 7.0 | 0.00 | 0.00 | 0.00 | 88 | 1009.6 |
| 20260506124413 | 60 | 96 | 2.0 | 2.0 | 0.00 | 0.00 | 0.00 | 88 | 1009.7 |
| 20260506123911 | 60 | 280 | 3.0 | 3.0 | 0.00 | 0.00 | 0.00 | 88 | 1009.6 |
| 20260506123409 | 60 | 147 | 5.0 | 6.0 | 0.00 | 0.00 | 0.00 | 88 | 1009.6 |
| 20260506122906 | 60 | 280 | 3.0 | 3.0 | 0.00 | 0.00 | 0.00 | 88 | 1009.8 |
| 20260506122402 | 60 | 141 | 7.0 | 8.0 | 0.00 | 0.00 | 0.00 | 88 | 1010.0 |
| 20260506121901 | 60 | 154 | 2.0 | 2.0 | 0.00 | 0.00 | 0.00 | 88 | 1010.0 |
| 20260506121357 | 60 | 219 | 2.0 | 3.0 | 0.00 | 0.00 | 0.00 | 88 | 1009.9 |
| 20260506120854 | 59 | 255 | 2.0 | 3.0 | 0.00 | 0.00 | 0.00 | 90 | 1010.1 |
| 20260506120352 | 59 | 240 | 3.0 | 3.0 | 0.00 | 0.00 | 0.00 | 90 | 1010.1 |
| 20260506115849 | 59 | 183 | 2.0 | 3.0 | 0.00 | 0.00 | 0.00 | 90 | 1010.0 |
| 20260506115347 | 59 | 114 | 5.0 | 9.0 | 0.00 | 0.00 | 0.00 | 90 | 1010.3 |
| 20260506114845 | 59 | 100 | 7.0 | 8.0 | 0.00 | 0.00 | 0.00 | 91 | 1010.2 |
| 20260506114342 | 58 | 309 | 1.0 | 3.0 | 0.00 | 0.00 | 0.00 | 92 | 1010.2 |
| 20260506113841 | 58 | 297 | 3.0 | 3.0 | 0.00 | 0.00 | 0.00 | 92 | 1010.2 |
| 20260506113338 | 58 | 248 | 5.0 | 6.0 | 0.00 | 0.00 | 0.00 | 92 | 1010.0 |
| 20260506112834 | 57 | 328 | 0.0 | 0.0 | 0.00 | 0.00 | 0.00 | 93 | 1010.0 |
| 20260506112332 | 57 | 113 | 3.0 | 3.0 | 0.00 | 0.00 | 0.00 | 94 | 1009.8 |
| 20260506111829 | 57 | 191 | 3.0 | 3.0 | 0.00 | 0.00 | 0.00 | 94 | 1009.9 |
| 20260506111327 | 57 | 213 | 3.0 | 5.0 | 0.00 | 0.00 | 0.00 | 94 | 1010.0 |
| 20260506110824 | 57 | 109 | 5.0 | 7.0 | 0.00 | 0.00 | 0.00 | 95 | 1010.3 |
| 20260506110321 | 56 | 194 | 4.0 | 5.0 | 0.00 | 0.00 | 0.00 | 95 | 1010.2 |
| 20260506105818 | 56 | 135 | 3.0 | 3.0 | 0.00 | 0.00 | 0.00 | 95 | 1010.1 |
| 20260506105315 | 56 | 159 | 5.0 | 8.0 | 0.00 | 0.00 | 0.00 | 96 | 1009.9 |
| 20260506104812 | 56 | 79 | 1.0 | 1.0 | 0.00 | 0.00 | 0.00 | 96 | 1009.8 |
| 20260506104310 | 56 | 197 | 2.0 | 2.0 | 0.00 | 0.00 | 0.00 | 96 | 1010.0 |
| 20260506103807 | 56 | 126 | 2.0 | 2.0 | 0.00 | 0.00 | 0.00 | 96 | 1009.9 |
| 20260506103305 | 56 | 146 | 3.0 | 3.0 | 0.00 | 0.00 | 0.00 | 96 | 1010.1 |
| 20260506102802 | 56 | 132 | 1.0 | 1.0 | 0.00 | 0.00 | 0.00 | 96 | 1009.9 |
| 20260506102300 | 56 | 97 | 1.0 | 1.0 | 0.00 | 0.00 | 0.00 | 96 | 1010.0 |
| 20260506101757 | 56 | 302 | 1.0 | 1.0 | 0.00 | 0.00 | 0.00 | 96 | 1009.9 |
| 20260506101253 | 55 | 152 | 4.0 | 6.0 | 0.00 | 0.00 | 0.00 | 96 | 1009.8 |
| 20260506100751 | 56 | 201 | 3.0 | 5.0 | 0.00 | 0.00 | 0.00 | 96 | 1009.9 |
| 20260506100249 | 55 | 248 | 2.0 | 3.0 | 0.00 | 0.00 | 0.00 | 96 | 1010.0 |
| 20260506095747 | 56 | 239 | 4.0 | 5.0 | 0.00 | 0.00 | 0.00 | 96 | 1009.9 |
| 20260506095244 | 56 | 226 | 0.0 | 0.0 | 0.00 | 0.00 | 0.00 | 95 | 1009.9 |
| 20260506094740 | 56 | 325 | 3.0 | 5.0 | 0.00 | 0.00 | 0.00 | 95 | 1009.9 |
| 20260506094239 | 56 | 128 | 2.0 | 3.0 | 0.00 | 0.00 | 0.00 | 95 | 1009.9 |
| 20260506093737 | 56 | 261 | 5.0 | 7.0 | 0.00 | 0.00 | 0.00 | 95 | 1009.9 |
| 20260506093234 | 56 | 289 | 1.0 | 2.0 | 0.00 | 0.00 | 0.00 | 95 | 1009.8 |
| 20260506092732 | 56 | 147 | 2.0 | 2.0 | 0.00 | 0.00 | 0.00 | 95 | 1009.9 |
| 20260506092229 | 56 | 230 | 5.0 | 7.0 | 0.00 | 0.00 | 0.00 | 95 | 1009.7 |
| 20260506091726 | 56 | 170 | 3.0 | 3.0 | 0.00 | 0.00 | 0.00 | 95 | 1009.9 |
| 20260506091224 | 56 | 218 | 8.0 | 9.0 | 0.00 | 0.00 | 0.00 | 95 | 1009.9 |
| 20260506090722 | 56 | 95 | 4.0 | 5.0 | 0.00 | 0.00 | 0.00 | 94 | 1009.9 |
| 20260506090218 | 56 | 189 | 5.0 | 8.0 | 0.00 | 0.00 | 0.00 | 94 | 1009.7 |
| 20260506085715 | 56 | 269 | 3.0 | 3.0 | 0.00 | 0.00 | 0.00 | 94 | 1009.9 |
| 20260506085211 | 56 | 261 | 3.0 | 5.0 | 0.00 | 0.00 | 0.00 | 94 | 1010.2 |
| 20260506084708 | 56 | 302 | 0.0 | 0.0 | 0.00 | 0.00 | 0.00 | 94 | 1010.0 |
| 20260506084204 | 56 | 130 | 1.0 | 2.0 | 0.00 | 0.00 | 0.00 | 94 | 1010.2 |
| 20260506083701 | 56 | 250 | 4.0 | 6.0 | 0.00 | 0.00 | 0.00 | 94 | 1010.0 |
| 20260506083159 | 56 | 131 | 1.0 | 1.0 | 0.00 | 0.00 | 0.00 | 94 | 1010.0 |
| 20260506082656 | 56 | 73 | 0.0 | 0.0 | 0.00 | 0.00 | 0.00 | 94 | 1010.1 |
| 20260506082156 | 56 | 293 | 2.0 | 3.0 | 0.00 | 0.00 | 0.00 | 94 | 1010.1 |
| 20260506081655 | 56 | 93 | 3.0 | 5.0 | 0.00 | 0.00 | 0.00 | 94 | 1010.3 |
| 20260506081152 | 56 | 104 | 2.0 | 3.0 | 0.00 | 0.00 | 0.00 | 94 | 1010.4 |
| 20260506080650 | 56 | 179 | 3.0 | 3.0 | 0.00 | 0.00 | 0.00 | 94 | 1010.3 |
| 20260506080146 | 56 | 262 | 4.0 | 8.0 | 0.00 | 0.00 | 0.00 | 94 | 1010.4 |
| 20260506073130 | 56 | 109 | 2.0 | 2.0 | 0.00 | 0.00 | 0.00 | 93 | 1010.3 |
| 20260506072626 | 56 | 126 | 1.0 | 2.0 | 0.00 | 0.00 | 0.00 | 93 | 1010.4 |
| 20260506072125 | 56 | 174 | 4.0 | 5.0 | 0.00 | 0.00 | 0.00 | 93 | 1010.5 |
| 20260506071622 | 56 | 127 | 5.0 | 7.0 | 0.00 | 0.00 | 0.00 | 93 | 1010.5 |
| 20260506071120 | 56 | 156 | 4.0 | 6.0 | 0.00 | 0.00 | 0.00 | 93 | 1010.7 |
| 20260506070616 | 56 | 206 | 3.0 | 3.0 | 0.00 | 0.00 | 0.00 | 92 | 1010.5 |
| 20260506070114 | 56 | 286 | 8.0 | 10.0 | 0.00 | 0.00 | 0.00 | 92 | 1010.4 |
| 20260506062051 | 56 | 218 | 5.0 | 7.0 | 0.00 | 0.00 | 0.00 | 92 | 1010.4 |
| 20260506061546 | 56 | 131 | 5.0 | 7.0 | 0.00 | 0.00 | 0.00 | 91 | 1010.4 |
| 20260506061044 | 57 | 130 | 3.0 | 3.0 | 0.00 | 0.00 | 0.00 | 91 | 1010.5 |
| 20260506060543 | 57 | 176 | 3.0 | 3.0 | 0.00 | 0.00 | 0.00 | 91 | 1010.2 |
| 20260506051011 | 58 | 304 | 4.0 | 5.0 | 0.00 | 0.00 | 0.00 | 89 | 1010.7 |
| 20260506050509 | 58 | 217 | 5.0 | 6.0 | 0.00 | 0.00 | 0.00 | 89 | 1010.7 |
| 20260506045000 | 58 | 180 | 3.0 | 5.0 | 0.00 | 0.00 | 0.00 | 88 | 1010.9 |
| 20260506044458 | 58 | 140 | 5.0 | 6.0 | 0.00 | 0.00 | 0.00 | 88 | 1010.8 |
| 20260506043954 | 58 | 295 | 3.0 | 5.0 | 0.00 | 0.00 | 0.00 | 87 | 1010.8 |
| 20260506043451 | 58 | 263 | 4.0 | 7.0 | 0.00 | 0.00 | 0.00 | 87 | 1010.8 |
| 20260506042949 | 58 | 191 | 3.0 | 6.0 | 0.00 | 0.00 | 0.00 | 87 | 1010.8 |
| 20260506042449 | 58 | 209 | 1.0 | 2.0 | 0.00 | 0.00 | 0.00 | 87 | 1010.8 |
| 20260506041946 | 58 | 208 | 5.0 | 6.0 | 0.00 | 0.00 | 0.00 | 87 | 1010.6 |
| 20260506041444 | 59 | 153 | 7.0 | 9.0 | 0.00 | 0.00 | 0.00 | 86 | 1010.6 |
| 20260506040941 | 59 | 233 | 3.0 | 5.0 | 0.00 | 0.00 | 0.00 | 86 | 1010.8 |
| 20260506040438 | 59 | 180 | 5.0 | 6.0 | 0.00 | 0.00 | 0.00 | 86 | 1011.1 |
| 20260506035934 | 59 | 190 | 3.0 | 5.0 | 0.00 | 0.00 | 0.00 | 86 | 1010.8 |
| 20260506035432 | 59 | 141 | 4.0 | 5.0 | 0.00 | 0.00 | 0.00 | 86 | 1010.9 |
| 20260506034928 | 59 | 209 | 3.0 | 5.0 | 0.00 | 0.00 | 0.00 | 85 | 1010.9 |
| 20260506034426 | 60 | 242 | 2.0 | 5.0 | 0.00 | 0.00 | 0.00 | 85 | 1010.8 |
| 20260506033923 | 60 | 113 | 6.0 | 7.0 | 0.00 | 0.00 | 0.00 | 84 | 1010.7 |
| 20260506033420 | 60 | 120 | 3.0 | 3.0 | 0.00 | 0.00 | 0.00 | 84 | 1010.8 |
| 20260506032917 | 60 | 166 | 3.0 | 5.0 | 0.00 | 0.00 | 0.00 | 84 | 1010.8 |
| 20260506032414 | 61 | 207 | 3.0 | 3.0 | 0.00 | 0.00 | 0.00 | 83 | 1010.6 |
| 20260506031910 | 61 | 182 | 5.0 | 6.0 | 0.00 | 0.00 | 0.00 | 83 | 1010.7 |
| 20260506031408 | 62 | 234 | 3.0 | 5.0 | 0.00 | 0.00 | 0.00 | 82 | 1010.7 |
| 20260506030905 | 62 | 226 | 5.0 | 7.0 | 0.00 | 0.00 | 0.00 | 82 | 1010.7 |
| 20260506030403 | 62 | 284 | 2.0 | 2.0 | 0.00 | 0.00 | 0.00 | 82 | 1010.8 |
| 20260506025859 | 61 | 135 | 4.0 | 5.0 | 0.00 | 0.00 | 0.00 | 82 | 1010.7 |
| 20260506025356 | 61 | 260 | 4.0 | 8.0 | 0.00 | 0.00 | 0.00 | 82 | 1010.9 |
| 20260506024853 | 61 | 266 | 4.0 | 7.0 | 0.00 | 0.00 | 0.00 | 82 | 1010.6 |
| 20260506024350 | 61 | 300 | 6.0 | 10.0 | 0.00 | 0.00 | 0.00 | 82 | 1010.8 |
| 20260506023846 | 61 | 224 | 6.0 | 8.0 | 0.00 | 0.00 | 0.00 | 82 | 1010.7 |
| 20260506023343 | 61 | 224 | 6.0 | 8.0 | 0.00 | 0.00 | 0.00 | 81 | 1010.8 |
| 20260506022840 | 61 | 294 | 7.0 | 9.0 | 0.00 | 0.00 | 0.00 | 81 | 1010.8 |
| 20260506022338 | 61 | 255 | 3.0 | 5.0 | 0.00 | 0.00 | 0.00 | 81 | 1010.8 |
| 20260506021836 | 61 | 184 | 4.0 | 6.0 | 0.00 | 0.00 | 0.00 | 80 | 1010.7 |
| 20260506021332 | 61 | 95 | 2.0 | 3.0 | 0.00 | 0.00 | 0.00 | 80 | 1010.8 |
| 20260506020829 | 61 | 264 | 5.0 | 9.0 | 0.00 | 0.00 | 0.00 | 80 | 1010.9 |
| 20260506020327 | 61 | 171 | 3.0 | 3.0 | 0.00 | 0.00 | 0.00 | 80 | 1010.8 |
| 20260506015824 | 61 | 248 | 6.0 | 7.0 | 0.00 | 0.00 | 0.00 | 80 | 1010.6 |
| 20260506015321 | 61 | 207 | 2.0 | 5.0 | 0.00 | 0.00 | 0.00 | 80 | 1010.7 |
| 20260506014818 | 61 | 207 | 7.0 | 9.0 | 0.00 | 0.00 | 0.00 | 79 | 1010.7 |
| 20260506014315 | 61 | 92 | 2.0 | 3.0 | 0.00 | 0.00 | 0.00 | 79 | 1010.8 |
| 20260506013812 | 61 | 228 | 2.0 | 3.0 | 0.00 | 0.00 | 0.00 | 79 | 1010.6 |
| 20260506013309 | 61 | 203 | 5.0 | 7.0 | 0.00 | 0.00 | 0.00 | 79 | 1010.4 |
| 20260506012805 | 61 | 159 | 4.0 | 6.0 | 0.00 | 0.00 | 0.00 | 79 | 1010.5 |
| 20260506012307 | 62 | 252 | 4.0 | 6.0 | 0.00 | 0.00 | 0.00 | 78 | 1010.2 |
| 20260506011800 | 62 | 259 | 7.0 | 10.0 | 0.00 | 0.00 | 0.00 | 78 | 1010.3 |
| 20260506011256 | 62 | 257 | 5.0 | 6.0 | 0.00 | 0.00 | 0.00 | 77 | 1010.2 |
| 20260506010754 | 62 | 220 | 6.0 | 8.0 | 0.00 | 0.00 | 0.00 | 77 | 1010.2 |
| 20260506010251 | 62 | 252 | 7.0 | 10.0 | 0.00 | 0.00 | 0.00 | 77 | 1010.2 |
| 20260506005748 | 62 | 202 | 4.0 | 5.0 | 0.00 | 0.00 | 0.00 | 77 | 1010.1 |
| 20260506005245 | 62 | 149 | 6.0 | 9.0 | 0.00 | 0.00 | 0.00 | 76 | 1010.0 |
| 20260506004741 | 63 | 194 | 6.0 | 8.0 | 0.00 | 0.00 | 0.00 | 75 | 1009.9 |
| 20260506004239 | 64 | 260 | 5.0 | 7.0 | 0.00 | 0.00 | 0.00 | 74 | 1009.9 |
| 20260506003734 | 64 | 246 | 9.0 | 13.0 | 0.00 | 0.00 | 0.00 | 74 | 1010.0 |
| 20260506003231 | 64 | 244 | 5.0 | 7.0 | 0.00 | 0.00 | 0.00 | 73 | 1009.9 |
| 20260506002727 | 65 | 128 | 8.0 | 9.0 | 0.00 | 0.00 | 0.00 | 72 | 1009.6 |
| 20260506002223 | 65 | 247 | 6.0 | 9.0 | 0.00 | 0.00 | 0.00 | 72 | 1009.6 |
| 20260506001719 | 65 | 187 | 5.0 | 7.0 | 0.00 | 0.00 | 0.00 | 71 | 1009.6 |
| 20260506001217 | 65 | 221 | 6.0 | 8.0 | 0.00 | 0.00 | 0.00 | 71 | 1009.6 |
| 20260506000714 | 65 | 296 | 4.0 | 8.0 | 0.00 | 0.00 | 0.00 | 71 | 1009.6 |
| 20260506000212 | 65 | 255 | 12.0 | 14.0 | 0.00 | 0.00 | 0.00 | 71 | 1009.3 |
| 20260505235709 | 65 | 174 | 4.0 | 5.0 | 0.00 | 0.00 | 0.00 | 71 | 1009.4 |
| 20260505235206 | 65 | 178 | 6.0 | 10.0 | 0.00 | 0.00 | 0.00 | 70 | 1009.3 |
| 20260505234703 | 65 | 122 | 4.0 | 6.0 | 0.00 | 0.00 | 0.00 | 70 | 1009.2 |
| 20260505234200 | 65 | 106 | 3.0 | 5.0 | 0.00 | 0.00 | 0.00 | 70 | 1009.1 |
| 20260505233656 | 65 | 224 | 9.0 | 9.0 | 0.00 | 0.00 | 0.00 | 69 | 1008.9 |
| 20260505233155 | 65 | 241 | 4.0 | 6.0 | 0.00 | 0.00 | 0.00 | 70 | 1009.2 |
| 20260505232652 | 65 | 233 | 3.0 | 3.0 | 0.00 | 0.00 | 0.00 | 70 | 1008.7 |
| 20260505232149 | 65 | 199 | 5.0 | 6.0 | 0.00 | 0.00 | 0.00 | 70 | 1008.4 |
| 20260505231646 | 65 | 289 | 5.0 | 7.0 | 0.00 | 0.00 | 0.00 | 71 | 1008.8 |
| 20260505231145 | 64 | 212 | 7.0 | 9.0 | 0.00 | 0.00 | 0.00 | 71 | 1008.8 |
| 20260505230642 | 64 | 251 | 5.0 | 7.0 | 0.00 | 0.00 | 0.00 | 71 | 1008.6 |
| 20260505230139 | 65 | 293 | 4.0 | 7.0 | 0.00 | 0.00 | 0.00 | 71 | 1008.5 |
| 20260505225635 | 65 | 263 | 10.0 | 14.0 | 0.00 | 0.00 | 0.00 | 70 | 1008.6 |
| 20260505225131 | 65 | 234 | 6.0 | 8.0 | 0.00 | 0.00 | 0.00 | 70 | 1008.6 |
| 20260505224628 | 65 | 220 | 5.0 | 6.0 | 0.00 | 0.00 | 0.00 | 69 | 1008.7 |
| 20260505224126 | 66 | 198 | 5.0 | 8.0 | 0.00 | 0.00 | 0.00 | 69 | 1008.6 |
| 20260505223623 | 66 | 174 | 7.0 | 11.0 | 0.00 | 0.00 | 0.00 | 68 | 1008.6 |
| 20260505223119 | 66 | 246 | 10.0 | 15.0 | 0.00 | 0.00 | 0.00 | 68 | 1008.5 |
| 20260505222615 | 67 | 329 | 5.0 | 8.0 | 0.00 | 0.00 | 0.00 | 67 | 1008.5 |
| 20260505222111 | 67 | 219 | 11.0 | 15.0 | 0.00 | 0.00 | 0.00 | 66 | 1008.2 |
| 20260505221608 | 67 | 149 | 4.0 | 6.0 | 0.00 | 0.00 | 0.00 | 66 | 1008.4 |
| 20260505221105 | 68 | 188 | 6.0 | 8.0 | 0.00 | 0.00 | 0.00 | 66 | 1008.0 |
| 20260505220602 | 68 | 171 | 6.0 | 8.0 | 0.00 | 0.00 | 0.00 | 66 | 1008.2 |
| 20260505220100 | 68 | 73 | 3.0 | 5.0 | 0.00 | 0.00 | 0.00 | 65 | 1008.2 |
| 20260505215558 | 68 | 196 | 8.0 | 13.0 | 0.00 | 0.00 | 0.00 | 65 | 1008.4 |
| 20260505215055 | 68 | 44 | 5.0 | 8.0 | 0.00 | 0.00 | 0.00 | 65 | 1008.2 |
| 20260505214554 | 68 | 216 | 8.0 | 14.0 | 0.00 | 0.00 | 0.00 | 65 | 1008.2 |
| 20260505214050 | 68 | 206 | 6.0 | 8.0 | 0.00 | 0.00 | 0.00 | 65 | 1008.3 |
| 20260505213548 | 68 | 188 | 9.0 | 11.0 | 0.00 | 0.00 | 0.00 | 66 | 1008.3 |
| 20260505213044 | 68 | 229 | 9.0 | 14.0 | 0.00 | 0.00 | 0.00 | 65 | 1008.3 |
| 20260505212540 | 68 | 244 | 5.0 | 6.0 | 0.00 | 0.00 | 0.00 | 66 | 1007.9 |
| 20260505212038 | 68 | 249 | 3.0 | 5.0 | 0.00 | 0.00 | 0.00 | 66 | 1008.1 |
| 20260505211535 | 68 | 223 | 9.0 | 14.0 | 0.00 | 0.00 | 0.00 | 66 | 1008.0 |
| 20260505211031 | 67 | 239 | 6.0 | 8.0 | 0.00 | 0.00 | 0.00 | 67 | 1008.1 |
| 20260505210528 | 68 | 202 | 9.0 | 10.0 | 0.00 | 0.00 | 0.00 | 67 | 1008.1 |
| 20260505210026 | 68 | 199 | 8.0 | 13.0 | 0.00 | 0.00 | 0.00 | 68 | 1008.0 |
| 20260505205523 | 68 | 205 | 4.0 | 6.0 | 0.00 | 0.00 | 0.00 | 67 | 1008.2 |
| 20260505205020 | 68 | 183 | 4.0 | 5.0 | 0.00 | 0.00 | 0.00 | 67 | 1008.3 |
| 20260505204518 | 68 | 128 | 3.0 | 3.0 | 0.00 | 0.00 | 0.00 | 67 | 1008.2 |
| 20260505204015 | 68 | 237 | 2.0 | 3.0 | 0.00 | 0.00 | 0.00 | 67 | 1008.2 |
| 20260505203511 | 69 | 118 | 5.0 | 7.0 | 0.00 | 0.00 | 0.00 | 66 | 1008.4 |
| 20260505203008 | 69 | 117 | 3.0 | 3.0 | 0.00 | 0.00 | 0.00 | 66 | 1007.9 |
| 20260505202505 | 69 | 185 | 5.0 | 7.0 | 0.00 | 0.00 | 0.00 | 67 | 1008.2 |
| 20260505202001 | 68 | 85 | 6.0 | 10.0 | 0.00 | 0.00 | 0.00 | 67 | 1008.3 |
| 20260505201458 | 68 | 263 | 8.0 | 10.0 | 0.00 | 0.00 | 0.00 | 67 | 1008.2 |
| 20260505200955 | 69 | 209 | 7.0 | 10.0 | 0.00 | 0.00 | 0.00 | 66 | 1008.3 |
| 20260505200453 | 70 | 210 | 7.0 | 9.0 | 0.00 | 0.00 | 0.00 | 65 | 1008.3 |
| 20260505195948 | 70 | 86 | 2.0 | 3.0 | 0.00 | 0.00 | 0.00 | 65 | 1008.5 |
| 20260505195446 | 69 | 223 | 7.0 | 10.0 | 0.00 | 0.00 | 0.00 | 66 | 1008.4 |
| 20260505194943 | 71 | 266 | 4.0 | 5.0 | 0.00 | 0.00 | 0.00 | 64 | 1008.4 |
| 20260505194441 | 71 | 231 | 6.0 | 13.0 | 0.00 | 0.00 | 0.00 | 64 | 1008.6 |
| 20260505193940 | 70 | 187 | 7.0 | 9.0 | 0.00 | 0.00 | 0.00 | 64 | 1008.8 |
| 20260505193438 | 70 | 301 | 2.0 | 3.0 | 0.00 | 0.00 | 0.00 | 65 | 1008.7 |
| 20260505192935 | 69 | 155 | 7.0 | 9.0 | 0.00 | 0.00 | 0.00 | 66 | 1008.7 |
| 20260505192434 | 70 | 77 | 2.0 | 2.0 | 0.00 | 0.00 | 0.00 | 66 | 1008.8 |
| 20260505191931 | 69 | 180 | 5.0 | 7.0 | 0.00 | 0.00 | 0.00 | 67 | 1008.9 |
| 20260505191430 | 70 | 189 | 9.0 | 9.0 | 0.00 | 0.00 | 0.00 | 65 | 1009.0 |
| 20260505190926 | 69 | 221 | 5.0 | 8.0 | 0.00 | 0.00 | 0.00 | 68 | 1009.1 |
| 20260505190421 | 68 | 252 | 7.0 | 10.0 | 0.00 | 0.00 | 0.00 | 68 | 1009.4 |
| 20260505185917 | 69 | 164 | 10.0 | 13.0 | 0.00 | 0.00 | 0.00 | 67 | 1009.5 |
| 20260505185415 | 69 | 238 | 6.0 | 8.0 | 0.00 | 0.00 | 0.00 | 66 | 1009.7 |
| 20260505184910 | 68 | 112 | 2.0 | 5.0 | 0.00 | 0.00 | 0.00 | 68 | 1009.3 |
| 20260505184407 | 69 | 122 | 5.0 | 8.0 | 0.00 | 0.00 | 0.00 | 67 | 1009.7 |
| 20260505183904 | 68 | 129 | 7.0 | 9.0 | 0.00 | 0.00 | 0.00 | 67 | 1009.4 |
| 20260505183401 | 69 | 276 | 6.0 | 9.0 | 0.00 | 0.00 | 0.00 | 67 | 1009.4 |
| 20260505182858 | 69 | 199 | 9.0 | 13.0 | 0.00 | 0.00 | 0.00 | 67 | 1009.7 |
| 20260505182355 | 70 | 253 | 5.0 | 7.0 | 0.00 | 0.00 | 0.00 | 66 | 1009.7 |
| 20260505181851 | 69 | 163 | 7.0 | 8.0 | 0.00 | 0.00 | 0.00 | 68 | 1009.8 |
| 20260505181349 | 69 | 164 | 6.0 | 9.0 | 0.00 | 0.00 | 0.00 | 68 | 1009.7 |
| 20260505180845 | 69 | 167 | 7.0 | 9.0 | 0.00 | 0.00 | 0.00 | 67 | 1009.7 |
| 20260505180341 | 70 | 143 | 7.0 | 8.0 | 0.00 | 0.00 | 0.00 | 67 | 1009.8 |
| 20260505175838 | 70 | 153 | 5.0 | 10.0 | 0.00 | 0.00 | 0.00 | 68 | 1009.7 |
| 20260505175334 | 70 | 111 | 3.0 | 3.0 | 0.00 | 0.00 | 0.00 | 68 | 1009.8 |
| 20260505174831 | 69 | 159 | 6.0 | 8.0 | 0.00 | 0.00 | 0.00 | 68 | 1009.9 |
| 20260505174329 | 70 | 251 | 9.0 | 13.0 | 0.00 | 0.00 | 0.00 | 67 | 1009.9 |
| 20260505173824 | 68 | 194 | 7.0 | 9.0 | 0.00 | 0.00 | 0.00 | 70 | 1010.0 |
| 20260505173321 | 68 | 160 | 6.0 | 9.0 | 0.00 | 0.00 | 0.00 | 71 | 1009.8 |
| 20260505172819 | 69 | 298 | 3.0 | 6.0 | 0.00 | 0.00 | 0.00 | 69 | 1009.7 |
| 20260505172316 | 68 | 164 | 10.0 | 13.0 | 0.00 | 0.00 | 0.00 | 71 | 1009.9 |
| 20260505171815 | 68 | 185 | 7.0 | 9.0 | 0.00 | 0.00 | 0.00 | 70 | 1010.0 |
| 20260505171313 | 69 | 190 | 8.0 | 11.0 | 0.00 | 0.00 | 0.00 | 69 | 1009.8 |
| 20260505170809 | 69 | 230 | 3.0 | 5.0 | 0.00 | 0.00 | 0.00 | 69 | 1010.2 |
| 20260505170306 | 70 | 161 | 7.0 | 9.0 | 0.00 | 0.00 | 0.00 | 68 | 1010.0 |
| 20260505165801 | 69 | 261 | 4.0 | 8.0 | 0.00 | 0.00 | 0.00 | 67 | 1010.2 |
| 20260505165257 | 70 | 171 | 6.0 | 8.0 | 0.00 | 0.00 | 0.00 | 66 | 1010.2 |
| 20260505164753 | 71 | 187 | 7.0 | 8.0 | 0.00 | 0.00 | 0.00 | 66 | 1010.0 |
| 20260505164250 | 70 | 114 | 5.0 | 6.0 | 0.00 | 0.00 | 0.00 | 66 | 1010.0 |
| 20260505163749 | 71 | 150 | 5.0 | 7.0 | 0.00 | 0.00 | 0.00 | 65 | 1010.1 |
| 20260505163247 | 70 | 241 | 3.0 | 3.0 | 0.00 | 0.00 | 0.00 | 65 | 1010.1 |
| 20260505162744 | 70 | 205 | 6.0 | 7.0 | 0.00 | 0.00 | 0.00 | 65 | 1010.2 |
| 20260505162241 | 70 | 151 | 3.0 | 3.0 | 0.00 | 0.00 | 0.00 | 65 | 1010.4 |
| 20260505161738 | 70 | 130 | 6.0 | 8.0 | 0.00 | 0.00 | 0.00 | 68 | 1010.6 |
| 20260505161235 | 70 | 184 | 8.0 | 9.0 | 0.00 | 0.00 | 0.00 | 67 | 1010.5 |
| 20260505160732 | 69 | 167 | 5.0 | 8.0 | 0.00 | 0.00 | 0.00 | 68 | 1010.7 |
| 20260505160230 | 71 | 137 | 3.0 | 5.0 | 0.00 | 0.00 | 0.00 | 66 | 1010.6 |
| 20260505153209 | 69 | 163 | 4.0 | 6.0 | 0.00 | 0.00 | 0.00 | 68 | 1010.7 |
| 20260505152706 | 69 | 121 | 5.0 | 6.0 | 0.00 | 0.00 | 0.00 | 68 | 1010.9 |
| 20260505152202 | 68 | 110 | 5.0 | 7.0 | 0.00 | 0.00 | 0.00 | 69 | 1010.9 |
| 20260505151657 | 69 | 105 | 2.0 | 2.0 | 0.00 | 0.00 | 0.00 | 68 | 1010.9 |
| 20260505151156 | 69 | 321 | 3.0 | 5.0 | 0.00 | 0.00 | 0.00 | 69 | 1010.9 |
| 20260505150651 | 69 | 193 | 5.0 | 6.0 | 0.00 | 0.00 | 0.00 | 68 | 1011.1 |
| 20260505150149 | 68 | 237 | 4.0 | 5.0 | 0.00 | 0.00 | 0.00 | 69 | 1011.1 |
| 20260505140617 | 68 | 199 | 5.0 | 7.0 | 0.00 | 0.00 | 0.00 | 67 | 1010.9 |
| 20260505140114 | 69 | 257 | 5.0 | 7.0 | 0.00 | 0.00 | 0.00 | 65 | 1010.8 |